Location: Killam
(52.7910°N, 111.8608°W)
Time: 11:38:57
(UTC+00:00)

ISS - Pass Details

Date: 27 January 2026
Orbit: 413 x 428 km, 51.6° (Epoch: 17 February)

Event Time Altitude Azimuth Distance (km) Brightness Sun altitude
Rises 02:17:51 0° 280° (W) 2,367 1.5 -20.3°
Reaches altitude 10° 02:20:17 10° 263° (W) 1,504 0.2 -20.6°
Maximum altitude 02:22:52 20° 213° (SSW) 1,024 -1.4 -21.0°
Enters shadow 02:24:13 16° 182° (S) 1,175 -1.5 -21.2°
